Temperature
21 21 21 21 21 20 20 20 20 20 20 20 20 20 20 19 19 19 19 19 19 19 18 18 19 19 18 18 18 18 18 18 17 17 17 17 17 17 16 16 16 16 16
21 21 21 21 21 20 20 20 20 20 20 20 20 20 20 19 19 19 19 19 18 18 18 18 18 18 18 18 18 18 18 17 17 17 17 17 17 16 16 16 16 15 15
21 21 21 21 20 20 20 20 20 20 20 20 20 20 19 19 19 19 19 19 18 18 18 18 18 18 17 17 17 17 17 17 17 17 16 16 16 16 16 16 15 15 15
22 21 21 21 21 20 20 20 20 20 20 20 20 20 19 19 19 19 19 19 18 18 18 18 18 17 17 17 17 17 17 17 16 16 16 16 16 16 15 15 15 15 15
22 21 21 21 21 20 20 20 20 20 20 20 20 20 19 19 19 19 19 18 18 18 18 17 17 17 17 17 17 16 16 16 16 16 16 15 15 15 15 15 15 15 15
21 21 21 20 20 20 20 20 20 20 20 19 19 19 19 19 19 19 19 18 18 18 17 17 17 17 17 17 16 16 16 16 16 15 15 15 15 15 15 15 14 14 14
21 21 21 20 20 20 20 20 20 20 20 19 19 19 19 19 19 19 18 18 18 17 17 17 16 16 16 16 16 16 16 16 15 15 15 15 15 15 14 14 14 14 14
21 21 20 20 20 20 20 19 19 19 19 19 19 19 19 19 18 18 18 18 17 17 17 16 16 16 16 16 16 16 16 15 15 15 15 15 15 14 14 14 14 14 14
20 20 20 20 20 20 19 19 19 19 19 19 18 18 18 18 18 18 17 17 17 17 16 16 16 16 16 16 16 15 15 15 15 15 15 14 14 14 14 14 13 13 13
20 20 20 20 20 19 19 19 19 18 18 18 18 18 18 18 18 17 17 17 16 16 16 16 16 16 16 15 15 15 15 15 15 14 14 14 14 14 14 13 13 13 13
20 19 19 19 19 19 19 19 18 18 18 17 17 17 17 17 17 17 17 16 16 16 16 15 16 16 15 15 15 15 15 15 14 14 14 14 14 14 14 13 13 13 13
19 19 18 18 18 18 18 18 18 17 17 17 17 17 17 16 16 16 16 16 16 15 15 15 15 15 15 15 15 15 15 14 14 14 14 14 13 13 13 13 13 13 13
18 18 18 18 18 18 17 17 17 17 17 17 17 16 16 16 16 16 16 16 15 15 15 15 15 15 15 14 14 14 14 14 14 14 14 13 13 13 13 13 13 12 12
18 17 17 17 17 17 17 17 17 16 16 16 16 16 15 15 15 15 15 15 15 15 14 14 14 14 14 14 14 14 14 13 13 13 13 13 13 12 12 12 12 12 12
17 17 17 17 16 16 16 16 16 16 16 16 16 15 15 15 15 15 15 15 14 14 14 14 14 14 14 13 13 13 13 13 13 13 12 12 12 12 12 12 12 12 11
16 16 16 16 16 16 16 16 16 16 16 15 15 15 15 15 15 14 14 14 14 14 14 13 13 13 13 13 13 13 13 13 12 12 12 12 12 12 11 11 11 11 11
16 16 15 15 16 16 15 15 15 15 15 15 15 15 15 14 14 14 14 14 13 13 13 13 13 13 12 12 12 12 12 12 12 12 12 11 11 11 11 11 11 10 11
15 15 15 15 15 15 15 15 15 15 15 15 14 14 14 14 14 13 13 13 13 13 13 12 12 12 12 12 12 12 12 11 11 11 11 11 11 11 11 10 10 10 10
15 15 15 15 15 15 15 15 14 14 14 14 14 13 13 13 13 13 13 12 12 12 12 12 12 12 11 11 11 11 11 11 11 11 11 10 10 10 10 10 10 10 10
14 15 14 14 14 14 14 14 14 14 14 13 13 13 13 12 12 12 12 12 12 11 11 11 11 11 11 11 11 11 10 10 10 10 10 10 10 10 10 10 10 10 10
14 14 14 14 14 14 14 13 13 13 13 13 13 12 12 12 12 11 11 11 11 11 11 11 11 11 10 10 10 10 10 10 10 10 10 10 9 9 9 9 9 9 9
14 14 14 14 14 13 13 13 13 13 13 12 12 12 12 11 11 11 11 11 11 10 10 10 10 10 10 10 10 9 9 9 9 9 9 9 9 9 9 9 9 9 9
13 13 13 13 13 13 13 13 12 12 12 12 12 11 11 11 11 11 10 10 10 10 9 9 9 9 9 9 9 9 9 9 9 8 8 8 8 8 8 8 8 8 8
13 13 13 13 13 13 12 12 12 12 12 11 11 11 11 10 10 10 10 10 9 9 9 9 9 9 9 8 8 8 8 8 8 8 8 8 8 8 8 8 8 8 8
13 13 13 12 12 12 12 12 12 11 11 11 11 10 10 10 9 9 9 9 9 8 8 8 8 8 8 7 7 7 7 7 7 7 7 7 7 7 7 7 7 7 7
12 12 12 12 12 11 11 11 11 11 11 10 10 10 9 9 9 8 8 8 8 8 8 7 7 7 7 7 7 7 7 7 7 7 7 7 7 7 7 7 7 7 7
Wind_Speed
9 8 6 7 6 6 4 3 3 2 2 3 3 3 3 3 3 3 3 2 2 2 3 2 2 3 3 3 2 2 2 2 3 2 0 2 2 2 3 5 6 7 8
9 8 7 7 6 6 5 4 4 4 3 3 3 3 3 3 2 2 3 2 3 3 3 3 3 3 2 3 3 3 2 2 2 2 1 1 2 3 3 4 4 6 6
10 9 8 7 7 6 5 5 5 5 4 4 3 3 3 2 2 3 3 3 3 2 2 3 3 3 3 2 3 3 3 3 1 2 2 2 2 2 2 3 3 1 4
9 9 8 8 7 6 5 5 5 5 5 4 4 4 4 3 3 2 3 3 3 3 3 2 2 1 2 3 3 2 2 2 2 2 2 2 1 1 1 2 2 2 3
7 7 7 7 7 6 6 5 5 5 6 4 4 4 4 4 3 3 3 4 4 3 2 2 2 2 1 1 2 2 2 2 2 2 2 1 0 1 2 2 3 2 3
6 7 6 6 6 6 6 5 5 4 4 4 4 4 4 4 2 3 3 3 3 3 3 2 3 2 3 3 3 2 2 2 2 2 2 1 1 1 1 2 2 2 2
5 5 5 5 5 5 6 5 5 5 5 4 4 4 3 3 3 2 3 3 2 2 2 2 3 1 1 2 4 5 4 4 4 2 2 2 2 2 2 3 3 3 4
5 5 5 5 4 4 4 4 4 4 4 3 4 3 2 2 3 3 3 4 3 2 2 2 1 1 3 2 3 3 3 4 5 4 3 3 3 2 3 4 5 4 4
5 4 4 5 5 4 4 4 3 3 3 4 3 3 2 2 2 2 2 3 3 3 2 2 2 2 3 3 3 4 4 4 5 6 6 6 5 5 3 2 2 2 4
4 4 4 4 4 4 4 3 3 3 3 3 3 3 3 2 3 3 3 3 3 2 1 1 1 1 2 2 3 4 5 5 4 4 4 5 5 5 5 4 3 3 3
3 3 4 4 4 4 4 3 3 3 3 3 3 3 3 3 3 2 2 2 2 2 2 1 1 1 1 2 3 4 6 6 5 5 4 4 4 3 4 4 3 4 4
2 2 3 3 4 4 3 3 3 3 4 3 3 3 2 1 1 2 3 3 3 2 2 1 0 1 2 4 4 6 7 5 4 4 3 3 3 3 3 4 4 5 6
2 3 3 3 3 3 4 4 3 3 4 3 3 3 2 2 1 2 3 2 3 2 1 1 1 3 4 4 6 6 4 3 4 4 4 4 3 3 3 3 3 4 5
2 2 2 3 3 3 2 3 3 3 3 2 2 2 2 2 1 1 1 1 1 2 2 1 2 4 4 4 3 3 3 3 3 4 4 3 2 2 2 2 3 3 4
1 2 3 3 3 3 2 0 1 0 1 2 2 2 2 3 3 3 2 2 2 2 2 2 2 2 2 3 3 2 2 2 3 3 3 3 3 3 2 2 2 2 3
1 2 3 3 3 3 3 2 5 3 2 2 2 2 1 3 4 3 2 2 2 2 1 2 3 3 3 3 2 2 1 1 2 3 3 3 3 3 3 2 2 3 4
2 2 3 3 3 4 4 3 2 2 3 3 2 4 4 4 3 3 2 1 1 2 2 2 2 2 3 3 2 2 2 2 2 3 3 3 3 3 3 3 3 4 4
2 3 3 3 3 4 4 4 4 3 2 0 1 2 3 3 3 3 3 1 1 2 2 2 2 2 2 2 2 2 2 2 2 3 3 3 3 3 3 3 3 4 4
2 2 2 3 3 2 3 3 3 3 2 1 1 1 2 2 2 3 3 2 2 2 2 2 2 2 1 1 2 2 2 2 2 3 3 3 3 3 3 3 4 5 4
2 3 3 3 2 2 2 2 2 2 2 2 2 1 1 1 1 1 2 2 1 1 1 1 1 2 2 2 2 2 2 2 2 2 3 3 3 3 4 4 4 4 4
2 2 2 2 1 1 1 1 2 2 2 2 2 3 4 2 1 1 1 0 1 2 2 2 2 2 2 2 2 3 3 2 2 3 3 3 3 4 4 4 4 4 4
2 1 1 0 0 1 1 2 2 1 2 2 2 2 4 2 0 0 0 1 1 1 2 2 2 2 2 3 4 4 4 4 4 5 4 4 4 4 4 4 4 4 4
1 0 1 1 1 1 1 1 1 1 1 1 1 1 1 0 0 0 1 2 2 3 2 3 3 4 4 5 5 5 4 4 4 5 6 6 5 5 5 5 5 4 4
1 1 2 2 2 1 1 0 0 1 1 1 1 1 1 1 1 1 1 1 2 2 3 3 4 5 6 6 6 6 6 6 6 5 6 6 6 5 5 5 5 6 5
1 2 3 3 2 2 2 2 1 2 2 1 2 2 2 1 2 2 3 3 4 4 5 5 4 5 6 7 7 7 7 7 7 7 6 6 7 6 6 5 5 5 6
3 3 3 3 3 3 3 3 3 3 3 3 2 2 2 2 2 2 3 3 3 3 3 4 5 6 6 6 7 7 7 7 8 8 7 6 6 6 6 5 6 6 6
Wind_Direction
179 179 178 177 186 197 202 197 200 205 194 195 200 201 202 210 213 218 226 228 218 236 258 261 265 280 298 301 289 273 251 234 260 280 219 145 170 185 174 188 193 187 196
177 175 179 179 186 195 194 196 199 202 201 201 203 206 217 211 210 214 238 244 233 231 247 259 268 273 276 290 302 292 276 251 234 262 260 218 210 200 197 207 216 214 197
176 178 181 185 191 197 199 200 196 194 198 195 197 209 227 222 215 218 228 244 251 248 248 252 265 280 284 289 285 285 291 289 242 236 250 243 223 205 197 226 234 236 228
175 180 183 188 192 197 203 200 192 189 192 194 197 206 215 215 221 234 243 239 247 250 249 248 251 257 283 285 285 295 290 293 285 242 245 242 214 185 189 232 243 229 235
177 184 186 187 189 192 197 194 188 193 199 192 197 207 208 217 227 225 239 238 232 235 237 232 222 180 140 278 286 305 292 272 273 262 257 267 263 184 232 242 247 248 232
180 185 181 181 191 194 191 187 184 189 196 195 202 205 216 229 223 211 230 255 236 226 230 229 218 195 194 211 231 257 270 264 265 270 277 273 289 282 264 269 265 262 265
173 174 173 180 188 193 195 185 187 192 196 202 206 201 196 199 218 237 242 242 237 237 250 261 264 253 217 238 239 238 243 243 232 237 265 267 262 265 267 267 259 254 258
170 176 175 179 183 181 184 186 193 193 194 201 206 197 185 210 215 229 257 223 225 224 240 249 248 288 306 293 278 267 252 242 225 221 234 254 261 256 250 257 262 254 256
177 182 178 177 182 185 182 186 193 192 199 201 190 186 193 217 228 227 247 238 222 230 235 254 231 244 288 277 266 267 263 262 245 228 222 229 239 249 251 267 276 266 269
186 186 179 176 181 186 184 184 186 195 205 203 195 184 185 209 227 224 241 251 241 231 200 211 227 238 295 271 254 263 266 273 276 251 235 231 231 227 220 220 234 252 273
182 174 173 178 187 187 180 181 186 196 198 195 196 197 195 206 203 199 194 246 271 262 247 228 239 164 237 255 249 254 260 270 273 258 240 229 229 227 221 221 227 232 249
157 167 174 177 202 191 172 185 190 194 195 195 198 195 193 171 165 179 181 210 258 266 266 263 222 215 242 255 254 265 273 276 265 262 255 248 238 242 246 239 232 235 240
162 172 184 185 183 176 179 187 191 196 202 202 203 203 195 176 191 185 177 215 257 252 270 268 281 252 251 253 251 262 272 266 261 260 260 259 251 241 246 243 245 248 252
157 174 177 168 169 158 171 193 199 206 212 206 206 214 202 191 214 215 223 242 258 263 284 282 249 249 256 261 263 256 247 256 262 267 274 278 282 279 267 265 265 258 267
174 194 201 195 180 162 151 53 187 229 212 198 216 223 214 217 223 207 223 240 245 244 260 256 255 252 252 249 242 243 243 247 255 265 273 279 278 270 266 266 271 273 262
208 211 219 212 190 175 150 97 47 55 70 116 156 173 175 183 188 179 199 241 236 180 201 253 260 266 271 275 276 267 260 273 278 269 264 264 267 267 266 262 260 261 262
237 246 244 232 208 194 177 175 164 57 50 70 112 138 160 177 187 190 199 227 214 175 208 249 262 269 282 289 295 310 311 298 284 277 275 274 268 265 264 263 260 264 267
245 252 253 249 230 218 203 203 194 186 180 70 44 133 154 178 202 205 195 152 228 221 235 245 249 259 274 294 310 315 319 315 303 294 283 283 283 277 272 269 264 265 266
255 256 259 257 246 227 212 209 203 188 178 164 124 105 172 193 228 234 204 234 236 240 259 266 275 289 300 319 327 319 309 300 303 301 304 307 296 285 283 280 274 273 263
256 241 243 263 245 215 213 209 199 183 171 173 163 123 110 141 188 231 229 243 274 281 294 321 337 332 331 325 312 290 285 295 303 303 313 308 305 301 293 288 287 287 275
267 235 225 247 237 214 216 216 204 194 199 182 167 148 156 188 199 214 240 247 310 314 341 355 356 357 355 340 334 334 334 327 333 329 319 311 309 303 296 290 284 283 286
279 243 239 211 183 185 209 229 221 203 196 188 157 160 178 197 144 30 304 315 342 348 350 354 353 0 7 355 347 350 351 357 358 346 332 320 310 304 301 301 303 295 288
258 74 70 74 89 131 209 262 257 238 218 178 149 145 172 190 113 359 8 13 14 11 9 13 6 13 23 19 11 11 13 10 352 338 329 322 319 316 312 306 298 296 296
314 79 71 62 58 37 26 343 333 128 137 158 135 92 58 38 15 19 36 40 32 18 25 31 25 21 27 23 20 23 24 9 348 335 329 315 308 305 301 299 300 300 299
51 67 60 46 45 41 35 41 55 71 76 77 73 66 48 36 41 38 43 41 37 34 32 33 29 18 22 24 24 23 17 12 360 339 322 308 301 297 298 300 299 298 298
43 53 49 48 58 55 56 54 49 49 54 59 62 67 56 42 42 40 40 39 38 30 30 32 23 13 8 21 24 19 14 2 347 334 319 300 299 301 307 300 299 298 296
Height
1506 1509 1511 1513 1515 1516 1518 1519 1520 1521 1523 1524 1525 1526 1526 1527 1528 1528 1529 1529 1529 1529 1529 1529 1529 1528 1528 1528 1528 1527 1527 1527 1526 1525 1526 1525 1525 1524 1524 1523 1523 1522 1521
1504 1507 1509 1511 1513 1514 1515 1516 1518 1519 1520 1522 1523 1524 1525 1525 1525 1526 1526 1527 1527 1527 1526 1526 1526 1526 1525 1525 1525 1524 1524 1524 1523 1522 1522 1522 1522 1521 1521 1520 1520 1519 1519
1502 1504 1507 1508 1510 1511 1513 1514 1515 1516 1518 1520 1521 1521 1522 1523 1523 1523 1524 1524 1524 1524 1524 1523 1523 1523 1522 1522 1522 1521 1521 1521 1520 1520 1519 1519 1519 1518 1518 1518 1517 1517 1516
1500 1502 1504 1506 1508 1509 1510 1511 1512 1514 1515 1516 1517 1518 1519 1520 1520 1520 1521 1521 1521 1521 1520 1520 1519 1519 1519 1519 1519 1518 1518 1517 1517 1517 1516 1516 1516 1515 1515 1515 1514 1514 1513
1498 1500 1502 1504 1505 1507 1508 1509 1510 1511 1512 1513 1514 1515 1516 1516 1517 1517 1517 1518 1517 1517 1517 1517 1516 1516 1515 1516 1516 1515 1515 1514 1514 1514 1513 1513 1513 1512 1512 1512 1511 1511 1511
1496 1498 1500 1501 1503 1504 1505 1506 1507 1509 1510 1511 1511 1512 1512 1513 1513 1514 1514 1514 1514 1514 1513 1513 1513 1513 1512 1512 1512 1512 1512 1512 1511 1511 1510 1510 1509 1509 1509 1509 1508 1508 1507
1493 1495 1497 1499 1500 1501 1502 1503 1504 1505 1506 1507 1508 1508 1509 1509 1510 1510 1510 1510 1510 1511 1511 1511 1510 1510 1509 1509 1509 1509 1509 1509 1509 1508 1507 1506 1506 1506 1505 1505 1505 1504 1503
1491 1492 1494 1495 1497 1498 1499 1500 1501 1502 1502 1503 1504 1505 1505 1506 1506 1507 1507 1507 1507 1507 1507 1507 1507 1506 1506 1506 1505 1505 1505 1505 1505 1504 1503 1503 1503 1502 1502 1502 1501 1500 1500
1488 1490 1491 1492 1493 1494 1495 1496 1497 1498 1499 1500 1501 1502 1502 1502 1503 1503 1504 1504 1503 1503 1504 1504 1504 1504 1503 1502 1502 1501 1501 1501 1501 1500 1500 1499 1499 1499 1499 1498 1497 1496 1495
1485 1486 1488 1489 1490 1491 1492 1493 1494 1495 1496 1497 1498 1498 1499 1499 1500 1500 1501 1501 1500 1500 1500 1500 1501 1500 1500 1499 1499 1498 1497 1497 1497 1496 1496 1495 1495 1495 1495 1494 1493 1493 1492
1483 1484 1485 1486 1487 1488 1489 1490 1491 1492 1493 1493 1495 1496 1496 1496 1497 1497 1498 1497 1497 1497 1497 1497 1497 1497 1496 1496 1495 1494 1494 1493 1493 1492 1492 1491 1491 1491 1490 1490 1489 1489 1488
1480 1481 1482 1483 1484 1485 1486 1487 1488 1489 1490 1491 1492 1492 1493 1493 1493 1494 1494 1494 1494 1494 1493 1494 1493 1493 1493 1492 1491 1490 1490 1489 1489 1488 1488 1487 1487 1486 1486 1485 1485 1484 1484
1476 1477 1479 1480 1481 1482 1483 1484 1485 1486 1487 1488 1488 1489 1489 1490 1490 1490 1490 1490 1490 1490 1490 1490 1490 1489 1488 1488 1487 1487 1486 1485 1485 1484 1484 1483 1483 1483 1483 1482 1481 1480 1480
1473 1474 1475 1477 1478 1479 1480 1481 1482 1483 1484 1485 1485 1485 1486 1486 1486 1486 1486 1486 1486 1486 1486 1486 1485 1485 1485 1484 1484 1483 1482 1482 1481 1481 1480 1480 1480 1479 1478 1477 1477 1476 1475
1470 1471 1473 1474 1474 1475 1477 1478 1479 1480 1481 1481 1481 1482 1482 1482 1482 1483 1483 1483 1483 1483 1482 1482 1481 1481 1481 1480 1480 1479 1479 1478 1478 1477 1477 1476 1475 1474 1474 1473 1473 1472 1471
1468 1469 1470 1471 1472 1472 1473 1475 1476 1477 1478 1478 1478 1479 1479 1479 1479 1479 1480 1480 1480 1480 1479 1478 1478 1478 1478 1477 1476 1475 1475 1474 1474 1473 1473 1472 1471 1470 1470 1469 1468 1468 1467
1466 1467 1468 1468 1469 1470 1470 1471 1472 1473 1474 1475 1475 1475 1476 1476 1476 1476 1476 1476 1477 1476 1476 1475 1475 1474 1474 1474 1473 1472 1472 1471 1470 1469 1469 1468 1467 1466 1466 1465 1464 1464 1463
1464 1464 1465 1465 1465 1466 1467 1468 1469 1469 1470 1470 1471 1472 1472 1472 1472 1472 1473 1473 1473 1473 1472 1472 1472 1471 1471 1470 1469 1469 1469 1468 1467 1466 1466 1465 1464 1463 1462 1461 1461 1460 1459
1461 1461 1461 1461 1462 1462 1463 1464 1465 1466 1466 1467 1467 1468 1468 1468 1468 1469 1469 1469 1469 1469 1469 1469 1469 1469 1468 1467 1466 1466 1466 1465 1464 1463 1462 1461 1460 1459 1458 1458 1457 1457 1456
1458 1457 1458 1458 1459 1459 1459 1460 1461 1462 1463 1463 1464 1465 1464 1465 1465 1465 1465 1466 1466 1466 1466 1466 1466 1466 1465 1464 1463 1462 1462 1461 1460 1459 1458 1458 1457 1456 1455 1454 1454 1453 1453
1455 1455 1455 1456 1456 1456 1457 1457 1458 1459 1460 1460 1461 1461 1462 1462 1462 1462 1462 1462 1462 1463 1463 1463 1462 1462 1462 1461 1460 1459 1459 1458 1457 1456 1455 1454 1453 1452 1452 1451 1451 1450 1449
1452 1453 1453 1453 1454 1454 1454 1455 1456 1457 1457 1457 1458 1459 1459 1460 1460 1460 1460 1460 1461 1461 1461 1461 1460 1460 1459 1458 1457 1456 1455 1454 1453 1452 1452 1451 1450 1449 1449 1448 1447 1447 1446
1451 1451 1452 1452 1452 1453 1453 1453 1454 1454 1455 1455 1456 1457 1457 1458 1458 1458 1458 1458 1458 1458 1458 1458 1457 1456 1456 1455 1454 1453 1452 1451 1450 1449 1448 1447 1446 1445 1445 1444 1444 1443 1442
1450 1450 1451 1451 1451 1451 1451 1451 1452 1452 1453 1454 1455 1455 1455 1456 1456 1456 1456 1457 1456 1456 1456 1455 1455 1454 1453 1453 1451 1450 1449 1448 1447 1446 1445 1444 1442 1441 1440 1440 1439 1439 1438
1449 1449 1450 1450 1451 1451 1450 1451 1451 1451 1452 1453 1453 1454 1454 1454 1454 1454 1454 1454 1454 1454 1454 1453 1452 1452 1451 1450 1448 1447 1446 1445 1444 1443 1441 1440 1439 1438 1437 1436 1435 1435 1434
1449 1449 1449 1450 1450 1451 1451 1451 1451 1451 1451 1452 1452 1452 1452 1452 1452 1452 1452 1452 1451 1451 1451 1450 1449 1449 1448 1447 1446 1445 1443 1441 1440 1439 1438 1436 1435 1434 1433 1432 1431 1430 1430